SCP
0 0 0 0 0 0 0 0 0 0 0 0 0 0 0 0 0 0 0 0 0 0 0 0 1 1 2 3 3 3 2 2 1 1 1 1 1 1 1 1 1 1 1 1
0 0 0 0 0 0 0 0 0 0 0 0 0 0 0 0 0 0 0 0 0 0 0 0 1 1 2 3 3 3 2 2 2 1 1 1 1 1 1 1 1 1 1 1
0 0 0 0 0 0 0 0 0 0 0 0 0 0 0 0 0 0 0 0 0 0 0 0 1 1 2 3 3 2 2 2 2 1 1 1 1 1 1 1 1 1 1 1
0 0 0 0 0 0 0 0 0 0 0 0 0 0 0 0 0 0 0 0 0 0 0 0 1 1 2 2 2 2 2 2 2 2 1 1 1 1 1 1 1 1 1 1
0 0 0 0 0 0 0 0 0 0 0 0 0 0 0 0 0 0 0 0 0 0 0 0 0 1 1 1 1 1 1 2 2 2 2 1 1 1 1 1 1 1 1 1
0 0 0 0 0 0 0 0 0 0 0 0 0 0 0 0 0 0 0 0 0 0 0 0 0 1 1 1 1 1 1 1 1 2 2 1 1 1 1 1 1 1 1 1
0 0 0 0 0 0 0 0 0 0 0 0 0 0 0 0 0 0 0 0 0 0 0 0 0 0 1 0 0 1 1 1 1 1 2 2 1 1 1 1 1 1 0 0
0 0 0 0 0 0 0 0 0 0 0 0 0 0 0 0 0 0 0 0 0 0 0 0 0 0 0 0 0 0 0 1 1 1 1 1 1 1 1 1 1 1 1 0
0 0 0 0 0 0 0 0 0 0 0 0 0 0 0 0 0 0 0 0 0 0 0 0 0 0 0 0 0 0 0 0 1 1 1 1 1 1 1 1 1 1 1 1
0 0 0 0 0 0 0 0 0 0 0 0 0 0 0 0 0 0 0 0 0 0 0 0 0 0 0 0 0 0 0 0 0 1 1 1 1 1 1 1 1 1 1 0
0 0 0 0 0 0 0 0 0 0 0 0 0 0 0 0 0 0 0 0 0 0 0 0 0 0 0 0 0 0 0 0 0 1 1 1 1 1 1 1 1 0 0 0
0 0 0 0 0 0 0 0 0 0 0 0 0 0 0 0 0 0 0 0 0 0 0 0 0 0 0 0 0 0 0 0 0 0 1 1 1 1 1 1 1 0 0 0
0 0 0 0 0 0 0 0 0 0 0 0 0 0 0 0 0 0 0 0 0 0 0 0 0 0 0 0 0 0 0 0 0 0 0 1 1 1 1 0 0 0 0 0
0 0 0 0 0 0 0 0 0 0 0 0 0 0 0 0 0 0 0 0 0 0 0 0 0 0 0 0 0 0 0 0 0 0 0 0 0 0 0 0 0 0 0 0
0 0 0 0 0 0 0 0 0 0 0 0 0 0 0 0 0 0 0 0 0 0 0 0 0 0 0 0 0 0 0 0 0 0 0 0 0 0 0 0 0 0 0 0
0 0 0 0 0 0 0 0 0 0 0 0 0 0 0 0 0 0 0 0 0 0 0 0 0 0 0 0 0 0 0 0 0 0 0 0 0 0 0 0 0 0 0 0
0 0 0 0 0 0 0 0 0 0 0 0 0 0 0 0 0 0 0 0 0 0 0 0 0 0 0 0 0 0 0 0 0 0 0 0 0 0 0 0 0 0 0 0
0 0 0 0 0 0 0 0 0 0 0 0 0 0 0 0 0 0 0 0 0 0 0 0 0 0 0 0 0 0 0 0 0 0 0 0 0 0 0 0 0 0 0 0
0 0 0 0 0 0 0 0 0 0 0 0 0 0 0 0 0 0 0 0 0 0 0 0 0 0 0 0 0 0 0 0 0 0 0 0 0 0 0 0 0 0 0 0
0 0 0 0 0 0 0 0 0 0 0 0 0 0 0 0 0 0 0 0 0 0 0 0 0 0 0 0 0 0 0 0 0 0 0 0 0 0 0 0 0 0 0 0
0 0 0 0 0 0 0 0 0 0 0 0 0 0 0 0 0 0 0 0 0 0 0 0 0 0 0 0 0 0 0 0 0 0 0 0 0 0 0 0 0 0 0 0
0 0 0 0 0 0 0 0 0 0 0 0 0 0 0 0 0 0 0 0 0 0 0 0 0 0 0 0 0 0 0 0 0 0 0 0 0 0 0 0 0 0 0 0
0 0 0 0 0 0 0 0 0 0 0 0 0 0 0 0 0 0 0 0 0 0 0 0 0 0 0 0 0 0 0 0 0 0 0 0 0 0 0 0 0 0 0 0
0 0 0 0 0 0 0 0 0 0 0 0 0 0 0 0 0 0 0 0 0 0 0 0 0 0 0 0 0 0 0 0 0 0 0 0 0 0 0 0 0 0 0 0
0 0 0 0 0 0 0 0 0 0 0 0 0 0 0 0 0 0 0 0 0 0 0 0 0 0 0 0 0 0 0 0 0 0 0 0 0 0 0 0 0 0 0 0
0 0 0 0 0 0 0 0 0 0 0 0 0 0 0 0 0 0 0 0 0 0 0 0 0 0 0 0 0 0 0 0 0 0 0 0 0 0 0 0 0 0 0 0
Wind_Speed
4 3 6 7 8 7 7 8 9 8 6 5 9 11 8 5 4 4 4 3 2 0 1 2 2 2 2 2 2 2 2 3 3 3 4 4 4 4 4 4 5 6 5 6
3 7 7 6 6 7 8 9 9 6 6 6 8 10 7 5 6 5 4 2 1 1 3 5 4 4 4 3 3 2 1 1 2 2 3 2 2 2 3 3 3 5 5 5
5 4 5 6 6 8 9 8 7 6 6 5 6 8 7 5 5 3 1 1 2 2 3 4 6 6 6 6 5 4 3 2 0 1 1 1 1 0 1 2 2 3 3 4
4 4 4 5 6 6 8 6 6 5 3 3 2 5 3 2 1 1 1 1 2 3 5 5 6 7 7 6 5 5 5 5 3 1 1 2 2 2 2 2 1 1 2 2
2 3 4 6 6 6 5 5 6 6 5 4 4 5 3 2 1 0 1 2 4 5 6 6 7 6 6 6 5 5 5 5 5 4 3 1 0 1 1 0 0 1 1 1
4 3 2 3 4 4 3 3 3 3 3 7 7 6 4 2 3 1 3 5 5 5 5 6 6 6 6 6 5 5 4 5 5 5 4 3 2 2 2 1 1 1 1 1
2 2 2 1 2 2 1 1 0 1 4 5 4 5 3 1 2 3 4 4 4 5 5 5 6 6 6 7 7 6 5 5 5 5 4 4 3 2 2 1 1 1 1 1
1 1 1 1 2 2 4 3 2 3 3 2 0 3 1 3 3 4 5 5 4 4 4 4 4 5 5 5 6 6 6 5 5 5 4 3 4 2 2 3 2 1 1 1
1 2 2 2 2 2 2 3 3 3 3 2 3 2 2 2 3 4 4 4 4 4 5 4 4 4 4 4 4 4 4 5 5 5 5 4 4 4 4 4 3 2 2 2
2 2 3 3 1 1 2 1 1 2 2 3 3 4 2 2 2 2 3 4 4 5 5 5 5 4 3 3 3 4 4 4 5 5 4 4 4 4 4 4 4 4 4 3
2 1 3 2 0 1 1 1 1 1 2 2 2 1 2 3 2 2 2 3 4 4 5 5 5 5 4 4 4 5 5 5 5 5 4 4 4 4 4 3 4 4 3 3
3 1 2 2 2 1 1 1 1 1 3 3 2 2 2 4 4 4 3 4 4 4 4 4 4 5 5 5 5 5 5 6 6 6 5 5 5 5 4 4 5 5 4 4
3 1 1 1 0 0 1 2 2 1 1 3 3 3 1 3 3 3 3 3 3 4 4 4 4 4 5 5 5 5 5 5 5 5 5 5 5 5 5 5 5 5 5 5
3 1 1 2 2 2 3 4 4 3 3 4 5 6 5 4 4 3 3 3 3 3 4 4 4 4 4 5 5 5 5 5 5 5 5 5 5 5 5 6 5 5 5 4
3 1 2 4 5 4 5 6 5 5 6 5 6 7 7 4 2 2 2 2 3 3 4 4 4 4 4 4 5 4 5 5 5 5 5 5 5 5 5 5 5 6 5 5
2 2 2 4 4 4 6 7 7 7 6 7 8 9 6 3 2 2 2 2 2 3 3 3 4 4 4 4 4 5 5 5 5 5 5 5 5 5 5 5 5 5 5 5
1 1 1 3 4 5 6 6 5 4 5 6 8 6 2 2 3 3 2 1 2 2 2 3 3 3 3 3 4 4 4 4 5 5 5 5 5 5 5 6 5 5 5 5
2 1 1 2 3 4 6 1 2 4 5 4 3 2 2 3 2 2 1 2 2 3 3 3 3 3 3 3 3 3 3 4 4 4 5 5 5 5 5 6 6 6 5 5
3 2 1 1 3 7 5 2 1 2 4 2 2 3 3 3 3 2 3 3 2 2 2 2 2 2 2 3 3 3 3 3 4 4 5 5 5 5 6 6 6 5 5 5
2 2 2 2 3 6 4 1 2 1 4 2 1 2 3 3 3 3 3 3 3 2 1 1 2 2 2 3 3 3 3 3 3 4 4 5 5 5 6 6 6 5 5 5
1 2 4 5 5 8 3 0 2 2 5 2 1 2 3 3 4 3 3 3 3 3 2 2 2 2 2 3 3 3 4 4 4 4 4 5 5 5 5 5 5 5 5 5
5 4 5 4 6 9 2 3 3 5 2 1 2 2 3 3 4 3 3 3 3 3 3 3 2 3 2 2 3 4 4 4 3 4 5 5 5 5 4 5 5 4 4 5
6 6 5 7 8 4 3 4 3 2 2 2 2 3 3 4 4 4 4 3 3 3 3 3 3 4 3 2 2 4 5 4 4 4 5 5 6 5 4 4 5 4 4 4
5 3 4 6 7 6 4 3 3 3 3 3 2 3 3 4 5 5 5 4 4 4 4 3 3 4 4 3 3 4 4 4 3 5 5 5 5 5 4 4 3 3 3 4
6 5 5 9 8 6 6 5 4 3 2 2 2 3 3 4 5 5 5 5 5 5 4 3 4 5 5 4 4 4 4 3 4 5 5 5 5 5 4 4 3 4 4 5
7 8 8 9 6 5 5 2 2 2 3 3 3 4 3 3 4 4 5 4 4 5 4 4 4 5 5 4 4 4 3 3 3 5 5 4 4 4 4 4 5 6 7 10
Wind_Direction
180 195 212 218 226 255 276 269 268 276 301 286 257 257 250 247 257 258 263 264 239 190 22 43 67 63 69 75 93 138 163 180 177 189 196 201 207 205 207 210 208 208 207 203
195 226 237 248 250 256 264 271 274 288 303 296 280 272 263 242 242 248 247 290 326 2 24 34 38 47 46 43 44 62 99 154 179 195 195 199 201 210 212 214 215 215 214 207
223 253 242 241 245 250 253 256 263 279 309 292 287 272 247 241 234 257 280 355 10 15 31 35 39 37 40 33 27 26 23 22 75 173 162 140 153 190 232 235 228 230 226 219
244 270 261 246 245 247 252 259 270 270 265 266 273 273 241 250 151 48 4 353 8 24 40 38 40 38 36 30 25 25 23 20 13 25 109 142 179 207 223 234 230 229 223 227
251 263 253 246 250 253 264 276 263 256 252 255 242 261 264 243 245 280 22 48 47 40 44 40 40 39 34 29 28 25 25 23 17 19 26 73 222 247 253 254 278 236 221 224
266 274 269 276 277 252 273 284 281 250 236 246 223 222 267 228 219 131 67 57 54 49 48 47 41 37 33 26 26 25 30 29 25 23 22 19 6 356 11 357 314 285 290 267
309 270 253 262 307 252 252 176 193 214 215 240 199 202 236 55 65 84 88 67 51 48 47 43 36 33 31 26 20 18 26 26 24 25 20 7 0 355 348 334 314 331 329 320
295 282 283 301 246 245 226 205 203 220 232 270 250 219 185 78 71 64 65 62 54 46 44 44 41 39 35 29 23 24 22 19 19 18 11 8 4 353 349 349 343 329 310 299
302 279 318 306 282 232 232 218 259 286 300 264 228 217 244 83 62 50 54 46 38 36 37 38 38 39 40 34 25 24 24 21 19 17 14 11 5 1 352 348 346 345 344 342
319 288 309 317 316 234 253 242 230 223 238 244 230 218 210 125 78 50 40 40 36 34 36 33 30 28 29 32 28 25 26 25 21 20 15 10 4 359 355 356 360 357 349 340
319 288 307 343 345 264 240 205 224 249 269 256 250 268 42 115 101 94 62 48 43 31 29 28 23 19 25 31 28 21 17 16 16 14 8 9 5 360 360 357 349 355 350 347
327 312 287 280 291 257 290 266 211 219 268 284 286 275 21 65 66 62 56 50 51 39 30 27 22 21 20 21 21 19 16 15 10 6 6 5 3 3 4 358 353 358 356 353
337 350 324 326 300 333 283 265 249 239 249 250 247 247 351 31 36 44 47 44 46 38 26 19 21 21 15 13 14 15 15 12 6 4 5 6 5 5 2 357 355 357 356 353
342 340 202 228 291 318 297 295 274 228 232 247 244 257 285 315 334 349 15 30 22 27 20 12 13 14 11 10 11 12 11 9 3 1 5 7 2 0 359 357 353 353 353 350
0 285 274 290 302 305 298 285 276 252 245 244 259 263 268 279 300 324 3 13 360 9 11 9 7 5 5 6 5 5 9 7 1 360 3 1 359 0 360 358 353 350 350 346
353 309 311 295 301 311 298 287 270 262 252 242 258 269 269 270 298 319 332 349 350 356 355 1 0 356 358 360 359 1 3 0 358 1 360 358 359 355 353 350 345 345 344 341
309 322 334 292 322 341 290 261 244 242 242 239 253 260 270 286 294 294 311 334 332 346 352 356 351 347 349 353 357 354 352 356 358 359 358 358 355 349 345 340 339 336 335 334
224 229 258 299 355 254 244 306 270 255 268 279 282 287 300 293 300 314 5 4 352 357 354 351 346 345 349 355 355 352 353 355 354 352 351 351 347 341 338 336 334 331 329 326
216 199 220 229 259 271 269 270 282 270 279 298 286 312 335 348 343 329 13 25 10 357 348 342 342 339 346 346 343 343 341 344 345 343 342 340 337 331 330 328 324 324 322 320
234 207 210 231 246 253 258 57 354 342 269 305 334 317 327 344 305 284 340 353 340 334 334 334 324 332 338 337 349 335 321 327 325 327 326 327 327 321 319 316 314 316 315 311
187 209 217 230 246 261 255 134 64 199 262 319 307 288 298 291 272 291 318 326 327 320 313 316 317 320 320 337 345 317 308 309 318 324 322 321 320 314 309 307 308 311 310 308
192 199 209 205 226 250 187 130 193 235 291 312 296 293 298 296 300 306 312 312 315 315 315 315 309 305 319 338 329 304 300 315 331 327 319 314 312 308 308 304 304 305 305 305
213 207 205 208 224 240 182 205 226 236 264 275 274 285 286 288 290 297 298 301 304 305 308 311 302 301 312 324 319 298 306 328 330 320 309 305 304 302 301 299 301 303 303 300
235 221 239 260 259 255 255 251 255 247 250 265 267 275 276 276 283 292 294 299 304 306 307 310 304 298 300 314 318 307 316 328 322 306 301 300 301 304 305 301 298 297 296 294
225 203 230 254 265 277 257 242 246 261 272 288 294 279 269 271 279 284 291 296 300 305 310 310 297 292 298 312 313 317 325 330 311 301 299 300 299 301 302 299 293 295 288 285
209 209 216 238 231 224 248 245 241 248 262 265 276 288 290 277 280 292 293 298 301 303 311 309 304 303 307 314 312 318 324 315 300 298 300 301 301 300 300 306 311 305 302 304